Andover, NJ

7:16 PM EDT on August 24, 2016 (GMT -0400)
Andover

Weather History for K12N - August, 2013

Change the Weather History Date:

Thursday, August 15, 2013

  Actual Average (KFWN) Record (KFWN)
Temperature  
Mean Temperature 62 °F -  
Max Temperature 75 °F 83 °F 95 °F (2002)
Min Temperature 50 °F 57 °F 46 °F (2013)
Degree Days  
Heating Degree Days 2    
Growing Degree Days 12 (Base 50)    
Moisture  
Dew Point 51 °F    
Average Humidity 71    
Maximum Humidity 93    
Minimum Humidity 38    
Precipitation  
Precipitation 0.00 in - - ()
Sea Level Pressure  
Sea Level Pressure 30.13 in    
Wind  
Wind Speed 1 mph (WNW)    
Max Wind Speed 7 mph    
Max Gust Speed -    
Averages and records for this station are not official NWS values.
T = Trace of Precipitation, MM = Missing Value Source: NWS Daily Summary

Daily Weather History Graph

Daily Weather History Graph

Search for Another Location

Airport or City:

Trip Planner

Search our weather history database for the weather conditions in past years. The results will help you decide how hot, cold, wet, or windy it might be!

Date:

Astronomy

Aug. 15, 2013 Rise Set
Actual Time 6:08 AM EDT 7:57 PM EDT
Civil Twilight 5:39 AM EDT 8:26 PM EDT
Nautical Twilight 5:03 AM EDT 9:02 PM EDT
Astronomical Twilight 4:24 AM EDT 9:40 PM EDT
Moon 3:12 PM EDT (8/15) 12:15 AM EDT (8/15)
Length of Visible Light 14h 47m
Length of Day
13h 48m
Waxing Gibbous, 64% of the Moon is Illuminated
Aug 15
Waxing Gibbous
Aug 20
Full
Aug 28
Last Quarter
Sep 5
New
Sep 12
First Quarter

Hourly Weather History & Observations

Time (EDT) Temp. Dew Point Humidity Pressure Visibility Wind Dir Wind Speed Gust Speed Precip Events Conditions
12:54 AM 54.0 °F 51.1 °F 90% 30.08 in - Calm Calm - N/A   Unknown
1:54 AM 53.1 °F 51.1 °F 93% 30.09 in - Calm Calm - N/A   Unknown
2:54 AM 52.0 °F 50.0 °F 93% 30.10 in - Calm Calm - N/A   Unknown
3:54 AM 50.0 °F 48.0 °F 93% 30.11 in - Calm Calm - N/A   Unknown
4:54 AM 50.0 °F 48.0 °F 93% 30.11 in - Calm Calm - N/A   Unknown
5:54 AM 50.0 °F 48.0 °F 93% 30.13 in - Calm Calm - N/A   Unknown
6:54 AM 50.0 °F 48.0 °F 93% 30.14 in - Calm Calm - N/A   Unknown
7:54 AM 55.0 °F 52.0 °F 89% 30.16 in - Calm Calm - N/A   Unknown
8:54 AM 60.1 °F 51.1 °F 72% 30.16 in - Calm Calm - N/A   Unknown
9:54 AM 64.0 °F 52.0 °F 65% 30.17 in - Calm Calm - N/A   Unknown
10:54 AM 69.1 °F 52.0 °F 54% 30.17 in - NW 5.8 mph - N/A   Unknown
11:54 AM 71.1 °F 52.0 °F 51% 30.15 in - Variable 3.5 mph - N/A   Unknown
12:54 PM 72.0 °F 50.0 °F 46% 30.14 in - WNW 6.9 mph - N/A   Unknown
1:54 PM 73.0 °F 46.9 °F 39% 30.12 in - SW 6.9 mph - N/A   Unknown
2:54 PM 75.0 °F 48.0 °F 38% 30.10 in - Variable 5.8 mph - N/A   Unknown
3:54 PM 75.0 °F 48.0 °F 38% 30.09 in - Variable 4.6 mph - N/A   Unknown
4:54 PM 73.0 °F 46.9 °F 39% 30.09 in - NNW 3.5 mph - N/A   Unknown
5:54 PM 75.0 °F 48.0 °F 38% 30.09 in - Variable 3.5 mph - N/A   Unknown
6:54 PM 68.0 °F 54.0 °F 61% 30.10 in - Calm Calm - N/A   Unknown
7:54 PM 64.0 °F 55.9 °F 75% 30.12 in - Calm Calm - N/A   Unknown
8:54 PM 60.1 °F 55.9 °F 86% 30.14 in - Calm Calm - N/A   Unknown
9:54 PM 57.9 °F 55.0 °F 90% 30.15 in - Calm Calm - N/A   Unknown
10:54 PM 57.0 °F 54.0 °F 89% 30.15 in - Calm Calm - N/A   Unknown
11:54 PM 55.9 °F 54.0 °F 93% 30.16 in - Calm Calm - N/A   Unknown